Time,TemperatureF,DewpointF,PressureIn,WindDirection,WindDirectionDegrees,WindSpeedMPH,WindSpeedGustMPH,Humidity,HourlyPrecipIn,Conditions,Clouds,dailyrainin,SoftwareType,DateUTC
2013-02-13 00:00:00,36.5,25.8,29.91,SSE,164,0.0,0.0,65,0.00,,,0.00,Wunderground v.1.15,2013-02-13 05:00:00,
2013-02-13 00:10:00,35.5,26.0,29.92,WSW,246,1.0,2.0,68,0.00,,,0.00,Wunderground v.1.15,2013-02-13 05:10:00,
2013-02-13 00:20:00,35.5,25.3,29.92,WSW,250,1.0,1.0,66,0.00,,,0.00,Wunderground v.1.15,2013-02-13 05:20:00,
2013-02-13 00:25:00,35.3,25.8,29.92,SW,225,1.0,1.0,68,0.00,,,0.00,Wunderground v.1.15,2013-02-13 05:25:00,
2013-02-13 00:30:00,35.0,25.9,29.92,SW,221,0.0,0.0,69,0.00,,,0.00,Wunderground v.1.15,2013-02-13 05:30:00,
2013-02-13 00:40:00,34.9,25.0,29.92,East,97,2.0,2.0,67,0.00,,,0.00,Wunderground v.1.15,2013-02-13 05:40:00,
2013-02-13 00:50:00,34.8,25.3,29.91,SW,233,1.0,2.0,68,0.00,,,0.00,Wunderground v.1.15,2013-02-13 05:50:00,
2013-02-13 01:00:00,36.2,25.6,29.92,SSW,207,2.0,4.0,65,0.00,,,0.00,Wunderground v.1.15,2013-02-13 06:00:00,
2013-02-13 01:10:00,36.9,25.1,29.92,South,169,3.0,7.0,62,0.00,,,0.00,Wunderground v.1.15,2013-02-13 06:10:00,
2013-02-13 01:20:00,36.9,25.1,29.92,SW,228,2.0,2.0,62,0.00,,,0.00,Wunderground v.1.15,2013-02-13 06:20:00,
2013-02-13 01:30:00,35.4,25.2,29.93,WSW,240,0.0,1.0,66,0.00,,,0.00,Wunderground v.1.15,2013-02-13 06:30:00,
2013-02-13 01:40:00,34.8,25.0,29.93,WSW,247,1.0,2.0,67,0.00,,,0.00,Wunderground v.1.15,2013-02-13 06:40:00,
2013-02-13 01:50:00,34.3,25.9,29.94,WSW,238,2.0,2.0,71,0.00,,,0.00,Wunderground v.1.15,2013-02-13 06:50:00,
2013-02-13 02:00:00,35.0,25.9,29.95,SSW,198,2.0,3.0,69,0.00,,,0.00,Wunderground v.1.15,2013-02-13 07:00:00,
2013-02-13 02:10:00,35.4,25.9,29.95,SSW,209,2.0,2.0,68,0.00,,,0.00,Wunderground v.1.15,2013-02-13 07:10:00,
2013-02-13 02:20:00,35.1,25.9,29.94,SSW,213,1.0,1.0,69,0.00,,,0.00,Wunderground v.1.15,2013-02-13 07:20:00,
2013-02-13 02:30:00,34.7,25.9,29.94,SW,230,0.0,1.0,70,0.00,,,0.00,Wunderground v.1.15,2013-02-13 07:30:00,
2013-02-13 02:40:00,33.9,26.5,29.94,SW,219,0.0,1.0,74,0.00,,,0.00,Wunderground v.1.15,2013-02-13 07:40:00,
2013-02-13 02:50:00,33.9,26.2,29.94,SSW,203,1.0,1.0,73,0.00,,,0.00,Wunderground v.1.15,2013-02-13 07:50:00,
2013-02-13 03:00:00,33.2,26.8,29.94,SSW,203,0.0,0.0,77,0.00,,,0.00,Wunderground v.1.15,2013-02-13 08:00:00,
2013-02-13 03:10:00,32.9,26.8,29.93,SW,230,0.0,0.0,78,0.00,,,0.00,Wunderground v.1.15,2013-02-13 08:10:00,
2013-02-13 03:20:00,32.8,26.7,29.93,SW,217,1.0,1.0,78,0.00,,,0.00,Wunderground v.1.15,2013-02-13 08:20:00,
2013-02-13 03:30:00,33.1,26.7,29.94,SW,232,1.0,3.0,77,0.00,,,0.00,Wunderground v.1.15,2013-02-13 08:30:00,
2013-02-13 03:40:00,33.3,27.2,29.93,SW,215,1.0,1.0,78,0.00,,,0.00,Wunderground v.1.15,2013-02-13 08:40:00,
2013-02-13 03:50:00,33.0,26.9,29.93,SSW,213,0.0,5.0,78,0.00,,,0.00,Wunderground v.1.15,2013-02-13 08:50:00,
2013-02-13 04:00:00,32.3,26.8,29.93,SW,228,0.0,5.0,80,0.00,,,0.00,Wunderground v.1.15,2013-02-13 09:00:00,
2013-02-13 04:10:00,31.8,26.6,29.92,SW,228,0.0,5.0,81,0.00,,,0.00,Wunderground v.1.15,2013-02-13 09:10:00,
2013-02-13 04:20:00,31.3,26.1,29.92,SW,228,0.0,5.0,81,0.00,,,0.00,Wunderground v.1.15,2013-02-13 09:20:00,
2013-02-13 04:30:00,30.8,26.2,29.91,SW,228,0.0,5.0,83,0.00,,,0.00,Wunderground v.1.15,2013-02-13 09:30:00,
2013-02-13 04:40:00,30.2,25.7,29.90,SW,217,0.0,0.0,83,0.00,,,0.00,Wunderground v.1.15,2013-02-13 09:40:00,
2013-02-13 04:50:00,29.7,25.5,29.90,SW,223,0.0,0.0,84,0.00,,,0.00,Wunderground v.1.15,2013-02-13 09:50:00,
2013-02-13 05:00:00,29.4,25.4,29.90,SW,223,0.0,0.0,85,0.00,,,0.00,Wunderground v.1.15,2013-02-13 10:00:00,
2013-02-13 05:10:00,29.0,25.1,29.90,SW,225,0.0,0.0,85,0.00,,,0.00,Wunderground v.1.15,2013-02-13 10:10:00,
2013-02-13 05:20:00,28.6,24.7,29.89,SW,225,0.0,0.0,85,0.00,,,0.00,Wunderground v.1.15,2013-02-13 10:20:00,
2013-02-13 05:30:00,28.3,24.6,29.89,SW,225,0.0,0.0,86,0.00,,,0.00,Wunderground v.1.15,2013-02-13 10:30:00,
2013-02-13 05:40:00,28.0,24.4,29.90,SW,227,0.0,0.0,86,0.00,,,0.00,Wunderground v.1.15,2013-02-13 10:40:00,
2013-02-13 05:50:00,27.8,24.4,29.90,SW,227,0.0,0.0,87,0.00,,,0.00,Wunderground v.1.15,2013-02-13 10:50:00,
2013-02-13 06:00:00,27.4,24.0,29.90,SSW,197,0.0,0.0,87,0.00,,,0.00,Wunderground v.1.15,2013-02-13 11:00:00,
2013-02-13 06:10:00,27.2,23.8,29.89,SSW,197,0.0,0.0,87,0.00,,,0.00,Wunderground v.1.15,2013-02-13 11:10:00,
2013-02-13 06:20:00,27.0,23.6,29.90,SW,234,0.0,1.0,87,0.00,,,0.00,Wunderground v.1.15,2013-02-13 11:20:00,
2013-02-13 06:30:00,27.2,24.1,29.90,WSW,240,1.0,2.0,88,0.00,,,0.00,Wunderground v.1.15,2013-02-13 11:30:00,
2013-02-13 06:40:00,27.1,24.0,29.91,SW,236,2.0,2.0,88,0.00,,,0.00,Wunderground v.1.15,2013-02-13 11:40:00,
2013-02-13 06:50:00,27.2,23.8,29.91,SW,236,0.0,0.0,87,0.00,,,0.00,Wunderground v.1.15,2013-02-13 11:50:00,
2013-02-13 07:00:00,26.8,23.4,29.91,SW,236,0.0,0.0,87,0.00,,,0.00,Wunderground v.1.15,2013-02-13 12:00:00,
2013-02-13 07:10:00,26.7,23.4,29.91,SW,236,0.0,2.0,87,0.00,,,0.00,Wunderground v.1.15,2013-02-13 12:10:00,
2013-02-13 07:20:00,26.7,23.4,29.91,WSW,237,0.0,2.0,87,0.00,,,0.00,Wunderground v.1.15,2013-02-13 12:20:00,
2013-02-13 07:30:00,26.7,23.4,29.91,WSW,237,0.0,2.0,87,0.00,,,0.00,Wunderground v.1.15,2013-02-13 12:30:00,
2013-02-13 07:40:00,26.6,23.3,29.91,WSW,237,0.0,0.0,87,0.00,,,0.00,Wunderground v.1.15,2013-02-13 12:40:00,
2013-02-13 07:50:00,27.8,24.7,29.91,WSW,237,0.0,0.0,88,0.00,,,0.00,Wunderground v.1.15,2013-02-13 12:50:00,
2013-02-13 08:00:00,29.4,25.2,29.91,WSW,237,0.0,0.0,84,0.00,,,0.00,Wunderground v.1.15,2013-02-13 13:00:00,
2013-02-13 08:10:00,30.1,25.6,29.91,WSW,237,0.0,0.0,83,0.00,,,0.00,Wunderground v.1.15,2013-02-13 13:10:00,
2013-02-13 08:20:00,32.3,26.5,29.91,WSW,237,0.0,0.0,79,0.00,,,0.00,Wunderground v.1.15,2013-02-13 13:20:00,
2013-02-13 08:30:00,33.3,26.5,29.90,WSW,237,0.0,0.0,76,0.00,,,0.00,Wunderground v.1.15,2013-02-13 13:30:00,
2013-02-13 08:40:00,34.1,27.0,29.90,WSW,237,0.0,0.0,75,0.00,,,0.00,Wunderground v.1.15,2013-02-13 13:40:00,
2013-02-13 08:50:00,35.2,26.7,29.89,WSW,237,0.0,0.0,71,0.00,,,0.00,Wunderground v.1.15,2013-02-13 13:50:00,
2013-02-13 09:00:00,36.4,25.7,29.89,SW,231,1.0,1.0,65,0.00,,,0.00,Wunderground v.1.15,2013-02-13 14:00:00,
2013-02-13 09:10:00,38.0,25.3,29.89,SW,223,0.0,0.0,60,0.00,,,0.00,Wunderground v.1.15,2013-02-13 14:10:00,
2013-02-13 09:20:00,37.9,24.4,29.88,NNW,334,2.0,2.0,58,0.00,,,0.00,Wunderground v.1.15,2013-02-13 14:20:00,
2013-02-13 09:30:00,37.5,24.5,29.88,NW,306,2.0,2.0,59,0.00,,,0.00,Wunderground v.1.15,2013-02-13 14:30:00,
2013-02-13 09:40:00,38.9,24.5,29.87,WNW,300,2.0,3.0,56,0.00,,,0.00,Wunderground v.1.15,2013-02-13 14:40:00,
2013-02-13 09:50:00,38.4,25.3,29.87,WNW,283,3.0,3.0,59,0.00,,,0.00,Wunderground v.1.15,2013-02-13 14:50:00,
2013-02-13 10:00:00,39.1,25.1,29.87,WSW,241,2.0,2.0,57,0.00,,,0.00,Wunderground v.1.15,2013-02-13 15:00:00,
2013-02-13 10:10:00,40.3,25.0,29.87,SW,234,2.0,2.0,54,0.00,,,0.00,Wunderground v.1.15,2013-02-13 15:10:00,
2013-02-13 10:20:00,39.7,24.8,29.87,West,265,3.0,3.0,55,0.00,,,0.00,Wunderground v.1.15,2013-02-13 15:20:00,
2013-02-13 10:30:00,40.4,26.4,29.87,SW,230,3.0,6.0,57,0.00,,,0.00,Wunderground v.1.15,2013-02-13 15:30:00,
2013-02-13 10:40:00,40.7,24.9,29.86,WSW,257,3.0,3.0,53,0.00,,,0.00,Wunderground v.1.15,2013-02-13 15:40:00,
2013-02-13 10:50:00,41.1,25.7,29.87,SW,227,1.0,3.0,54,0.00,,,0.00,Wunderground v.1.15,2013-02-13 15:50:00,
2013-02-13 11:00:00,41.8,24.5,29.88,SW,231,3.0,4.0,50,0.00,,,0.00,Wunderground v.1.15,2013-02-13 16:00:00,
2013-02-13 11:10:00,41.5,25.2,29.88,SSE,168,2.0,8.0,52,0.00,,,0.00,Wunderground v.1.15,2013-02-13 16:10:00,
2013-02-13 11:20:00,41.6,24.8,29.88,SW,222,5.0,5.0,51,0.00,,,0.00,Wunderground v.1.15,2013-02-13 16:20:00,
2013-02-13 11:30:00,41.9,25.1,29.88,SW,220,4.0,6.0,51,0.00,,,0.00,Wunderground v.1.15,2013-02-13 16:30:00,
2013-02-13 11:40:00,40.7,23.5,29.88,West,270,2.0,2.0,50,0.00,,,0.00,Wunderground v.1.15,2013-02-13 16:40:00,
2013-02-13 11:50:00,40.9,25.5,29.88,WSW,255,2.0,2.0,54,0.00,,,0.00,Wunderground v.1.15,2013-02-13 16:50:00,
2013-02-13 12:00:00,41.2,24.9,29.87,SW,217,2.0,5.0,52,0.00,,,0.00,Wunderground v.1.15,2013-02-13 17:00:00,
2013-02-13 12:10:00,40.9,24.6,29.86,WSW,253,2.0,2.0,52,0.00,,,0.00,Wunderground v.1.15,2013-02-13 17:10:00,
2013-02-13 12:20:00,40.7,24.9,29.85,WSW,240,1.0,2.0,53,0.00,,,0.00,Wunderground v.1.15,2013-02-13 17:20:00,
2013-02-13 12:30:00,41.6,25.3,29.85,SW,225,1.0,1.0,52,0.00,,,0.00,Wunderground v.1.15,2013-02-13 17:30:00,
2013-02-13 12:40:00,42.8,25.4,29.83,ESE,119,2.0,2.0,50,0.00,,,0.00,Wunderground v.1.15,2013-02-13 17:40:00,
2013-02-13 12:50:00,42.2,24.9,29.83,East,83,3.0,3.0,50,0.00,,,0.00,Wunderground v.1.15,2013-02-13 17:50:00,
2013-02-13 13:00:00,42.7,25.8,29.83,SSW,209,2.0,2.0,51,0.00,,,0.00,Wunderground v.1.15,2013-02-13 18:00:00,
2013-02-13 13:10:00,43.3,25.4,29.81,SE,136,2.0,3.0,49,0.00,,,0.00,Wunderground v.1.15,2013-02-13 18:10:00,
2013-02-13 13:20:00,43.2,25.8,29.80,SW,224,2.0,2.0,50,0.00,,,0.00,Wunderground v.1.15,2013-02-13 18:20:00,
2013-02-13 13:30:00,43.9,25.5,29.79,SW,215,1.0,1.0,48,0.00,,,0.00,Wunderground v.1.15,2013-02-13 18:30:00,
2013-02-13 13:40:00,43.4,26.0,29.78,SW,230,1.0,3.0,50,0.00,,,0.00,Wunderground v.1.15,2013-02-13 18:40:00,
2013-02-13 13:50:00,44.2,26.2,29.77,WSW,257,2.0,6.0,49,0.00,,,0.00,Wunderground v.1.15,2013-02-13 18:50:00,
2013-02-13 14:00:00,44.3,26.3,29.77,SW,215,3.0,4.0,49,0.00,,,0.00,Wunderground v.1.15,2013-02-13 19:00:00,
2013-02-13 14:10:00,44.7,25.7,29.78,SW,217,3.0,5.0,47,0.00,,,0.00,Wunderground v.1.15,2013-02-13 19:10:00,
2013-02-13 14:20:00,44.1,25.6,29.77,NNE,21,2.0,4.0,48,0.00,,,0.00,Wunderground v.1.15,2013-02-13 19:20:00,
2013-02-13 14:30:00,43.7,25.8,29.77,WNW,302,2.0,2.0,49,0.00,,,0.00,Wunderground v.1.15,2013-02-13 19:30:00,
2013-02-13 14:40:00,44.1,26.1,29.77,SW,228,2.0,2.0,49,0.00,,,0.00,Wunderground v.1.15,2013-02-13 19:40:00,
2013-02-13 14:50:00,44.0,25.5,29.76,West,267,2.0,2.0,48,0.00,,,0.00,Wunderground v.1.15,2013-02-13 19:50:00,
2013-02-13 15:00:00,43.5,25.6,29.76,SSW,195,1.0,1.0,49,0.00,,,0.00,Wunderground v.1.15,2013-02-13 20:00:00,
2013-02-13 15:10:00,43.8,25.4,29.76,SW,234,2.0,3.0,48,0.00,,,0.00,Wunderground v.1.15,2013-02-13 20:10:00,
2013-02-13 15:20:00,43.2,25.3,29.75,WSW,241,1.0,2.0,49,0.00,,,0.00,Wunderground v.1.15,2013-02-13 20:20:00,
2013-02-13 15:30:00,42.9,25.5,29.75,WSW,239,2.0,2.0,50,0.00,,,0.00,Wunderground v.1.15,2013-02-13 20:30:00,
2013-02-13 15:40:00,42.5,25.6,29.75,WSW,240,1.0,1.0,51,0.00,,,0.00,Wunderground v.1.15,2013-02-13 20:40:00,
2013-02-13 15:50:00,42.5,25.6,29.75,SSW,194,1.0,3.0,51,0.00,,,0.00,Wunderground v.1.15,2013-02-13 20:50:00,
2013-02-13 16:00:00,42.4,25.1,29.75,SW,216,1.0,1.0,50,0.00,,,0.00,Wunderground v.1.15,2013-02-13 21:00:00,
2013-02-13 16:10:00,42.2,25.3,29.74,SW,234,1.0,3.0,51,0.00,,,0.00,Wunderground v.1.15,2013-02-13 21:10:00,
2013-02-13 16:20:00,42.0,25.6,29.74,SW,236,0.0,0.0,52,0.00,,,0.00,Wunderground v.1.15,2013-02-13 21:20:00,
2013-02-13 16:30:00,41.9,25.5,29.74,NW,313,0.0,0.0,52,0.00,,,0.00,Wunderground v.1.15,2013-02-13 21:30:00,
2013-02-13 16:40:00,41.7,26.3,29.74,South,174,1.0,1.0,54,0.00,,,0.00,Wunderground v.1.15,2013-02-13 21:40:00,
2013-02-13 16:50:00,41.5,26.5,29.75,SW,221,1.0,3.0,55,0.00,,,0.00,Wunderground v.1.15,2013-02-13 21:50:00,
2013-02-13 17:00:00,41.7,26.3,29.73,South,189,1.0,2.0,54,0.00,,,0.00,Wunderground v.1.15,2013-02-13 22:00:00,
2013-02-13 17:10:00,41.3,26.3,29.72,SSW,196,1.0,1.0,55,0.00,,,0.00,Wunderground v.1.15,2013-02-13 22:10:00,
2013-02-13 17:20:00,41.0,26.9,29.72,South,191,0.0,2.0,57,0.00,,,0.00,Wunderground v.1.15,2013-02-13 22:20:00,
2013-02-13 17:30:00,40.7,27.1,29.71,NNE,13,1.0,1.0,58,0.00,,,0.00,Wunderground v.1.15,2013-02-13 22:30:00,
2013-02-13 17:40:00,40.5,27.3,29.71,NNE,14,0.0,0.0,59,0.00,,,0.00,Wunderground v.1.15,2013-02-13 22:40:00,
2013-02-13 17:50:00,40.0,28.0,29.70,NNE,16,1.0,1.0,62,0.00,,,0.00,Wunderground v.1.15,2013-02-13 22:50:00,
2013-02-13 18:00:00,39.5,27.5,29.70,NNE,24,0.0,0.0,62,0.00,,,0.00,Wunderground v.1.15,2013-02-13 23:00:00,
2013-02-13 18:10:00,39.3,27.7,29.70,NNE,24,0.0,0.0,63,0.00,,,0.00,Wunderground v.1.15,2013-02-13 23:10:00,
2013-02-13 18:20:00,39.0,27.5,29.70,NNE,25,0.0,0.0,63,0.00,,,0.00,Wunderground v.1.15,2013-02-13 23:20:00,
2013-02-13 18:30:00,38.9,28.1,29.70,NNE,18,0.0,0.0,65,0.00,,,0.00,Wunderground v.1.15,2013-02-13 23:30:00,
2013-02-13 18:40:00,39.0,29.0,29.69,North,356,1.0,1.0,67,0.00,,,0.00,Wunderground v.1.15,2013-02-13 23:40:00,
2013-02-13 18:50:00,38.6,27.8,29.70,North,1,0.0,0.0,65,0.00,,,0.00,Wunderground v.1.15,2013-02-13 23:50:00,
2013-02-13 19:00:00,38.8,28.4,29.71,SSE,163,0.0,0.0,66,0.00,,,0.00,Wunderground v.1.15,2013-02-14 00:00:00,
2013-02-13 19:10:00,38.8,26.9,29.70,SE,146,0.0,0.0,62,0.00,,,0.00,Wunderground v.1.15,2013-02-14 00:10:00,
2013-02-13 19:20:00,38.9,27.8,29.71,NNW,330,0.0,0.0,64,0.00,,,0.00,Wunderground v.1.15,2013-02-14 00:20:00,
2013-02-13 19:30:00,38.7,27.9,29.71,WNW,301,0.0,0.0,65,0.00,,,0.00,Wunderground v.1.15,2013-02-14 00:30:00,
2013-02-13 19:40:00,38.5,27.4,29.71,WNW,292,0.0,0.0,64,0.00,,,0.00,Wunderground v.1.15,2013-02-14 00:40:00,
2013-02-13 19:50:00,38.2,27.8,29.71,NE,47,0.0,0.0,66,0.00,,,0.00,Wunderground v.1.15,2013-02-14 00:50:00,
2013-02-13 20:00:00,38.2,28.2,29.70,NE,38,0.0,1.0,67,0.00,,,0.00,Wunderground v.1.15,2013-02-14 01:00:00,
2013-02-13 20:10:00,37.9,28.3,29.70,NNE,28,0.0,0.0,68,0.00,,,0.00,Wunderground v.1.15,2013-02-14 01:10:00,
2013-02-13 20:20:00,37.8,28.2,29.70,NNE,28,0.0,0.0,68,0.00,,,0.00,Wunderground v.1.15,2013-02-14 01:20:00,
2013-02-13 20:30:00,37.6,28.0,29.70,NNE,28,0.0,0.0,68,0.00,,,0.00,Wunderground v.1.15,2013-02-14 01:30:00,
2013-02-13 20:40:00,37.5,28.2,29.71,West,269,0.0,2.0,69,0.00,,,0.00,Wunderground v.1.15,2013-02-14 01:40:00,
2013-02-13 20:50:00,37.5,27.5,29.71,WSW,253,1.0,2.0,67,0.00,,,0.00,Wunderground v.1.15,2013-02-14 01:50:00,
2013-02-13 21:00:00,38.4,27.7,29.72,WSW,244,2.0,2.0,65,0.00,,,0.00,Wunderground v.1.15,2013-02-14 02:00:00,
2013-02-13 21:10:00,37.9,29.0,29.72,WSW,246,0.0,2.0,70,0.00,,,0.00,Wunderground v.1.15,2013-02-14 02:10:00,
2013-02-13 21:20:00,37.9,27.9,29.72,NW,311,1.0,1.0,67,0.00,,,0.00,Wunderground v.1.15,2013-02-14 02:20:00,
2013-02-13 21:30:00,37.8,29.6,29.72,West,270,2.0,3.0,72,0.00,,,0.00,Wunderground v.1.15,2013-02-14 02:30:00,
2013-02-13 21:40:00,37.1,30.9,29.72,West,259,2.0,7.0,78,0.00,,,0.00,Wunderground v.1.15,2013-02-14 02:40:00,
2013-02-13 21:50:00,35.9,31.5,29.72,West,269,3.0,3.0,84,0.00,,,0.00,Wunderground v.1.15,2013-02-14 02:50:00,
2013-02-13 22:00:00,35.0,31.5,29.71,West,259,1.0,7.0,87,0.00,,,0.00,Wunderground v.1.15,2013-02-14 03:00:00,
2013-02-13 22:10:00,34.6,31.7,29.71,North,356,2.0,2.0,89,0.00,,,0.00,Wunderground v.1.15,2013-02-14 03:10:00,
2013-02-13 22:20:00,34.3,31.7,29.71,NNE,18,2.0,4.0,90,0.00,,,0.00,Wunderground v.1.15,2013-02-14 03:20:00,
2013-02-13 22:30:00,34.2,31.8,29.71,North,356,2.0,2.0,91,0.00,,,0.00,Wunderground v.1.15,2013-02-14 03:30:00,
2013-02-13 22:40:00,34.2,31.8,29.72,North,1,2.0,4.0,91,0.00,,,0.01,Wunderground v.1.15,2013-02-14 03:40:00,
2013-02-13 22:50:00,33.9,31.6,29.71,North,7,2.0,2.0,91,0.00,,,0.01,Wunderground v.1.15,2013-02-14 03:50:00,
2013-02-13 23:00:00,33.8,31.7,29.71,NE,35,3.0,3.0,92,0.00,,,0.01,Wunderground v.1.15,2013-02-14 04:00:00,
2013-02-13 23:10:00,33.7,31.6,29.71,North,6,3.0,8.0,92,0.00,,,0.01,Wunderground v.1.15,2013-02-14 04:10:00,
2013-02-13 23:20:00,33.6,31.5,29.71,North,1,2.0,8.0,92,0.00,,,0.01,Wunderground v.1.15,2013-02-14 04:20:00,
2013-02-13 23:30:00,33.5,31.4,29.71,NNE,14,1.0,8.0,92,0.00,,,0.01,Wunderground v.1.15,2013-02-14 04:30:00,
2013-02-13 23:40:00,33.6,31.5,29.72,NNE,24,2.0,2.0,92,0.00,,,0.01,Wunderground v.1.15,2013-02-14 04:40:00,
2013-02-13 23:50:00,33.6,31.5,29.71,NNE,12,2.0,2.0,92,0.00,,,0.01,Wunderground v.1.15,2013-02-14 04:50:00,